SCP
1 1 1 1 1 1 1 1 1 1 1 1 1 0 0 0 0 0 1 1 0 0 0 0 0 0 0 0 0 0 0 0 0 0 0 0 0 0 0 0 0 0 0
1 1 1 1 1 1 1 1 1 1 1 1 1 1 0 0 0 0 1 1 0 0 0 0 0 0 0 0 1 1 0 0 0 0 0 0 0 0 0 0 0 0 0
1 1 1 1 1 1 1 1 1 1 1 1 1 1 1 0 0 1 1 1 1 0 0 0 0 1 1 1 1 1 1 0 0 0 0 0 0 0 0 0 0 0 0
1 1 1 1 1 1 1 1 1 1 1 1 1 1 1 1 1 1 1 1 1 1 1 1 1 1 1 1 1 1 1 0 0 0 0 0 0 0 0 0 0 0 0
1 1 1 1 1 1 1 1 1 1 1 1 1 1 1 1 1 1 1 1 1 1 1 1 1 1 1 1 1 1 0 0 0 0 0 0 0 0 0 0 0 0 0
1 1 1 1 1 1 1 1 1 1 1 1 1 1 1 1 1 1 1 1 1 1 1 1 1 1 1 1 1 1 1 0 0 0 0 0 0 0 0 0 0 0 0
1 1 1 1 1 1 1 1 1 1 1 1 1 1 1 1 1 1 1 1 1 1 1 1 1 1 1 1 1 1 1 1 1 0 0 0 0 0 0 0 0 0 0
1 1 1 1 1 1 1 1 1 2 1 1 1 1 1 1 1 1 1 1 1 1 1 1 1 1 1 1 1 1 1 1 1 0 0 0 0 0 0 0 0 0 0
1 1 1 1 1 1 1 1 1 2 1 1 1 1 1 1 1 1 1 1 1 1 1 1 1 1 1 1 1 1 1 1 1 1 1 0 0 0 0 0 0 0 0
1 1 1 1 1 1 1 1 2 2 1 1 1 1 1 1 1 1 1 1 1 1 1 1 1 1 1 1 1 1 1 1 1 1 1 1 1 0 0 0 0 0 0
1 1 1 1 1 1 1 1 2 2 1 1 1 1 1 1 1 1 1 1 1 1 1 1 1 1 1 1 1 1 1 1 1 1 1 1 1 1 1 0 0 0 0
1 1 1 1 1 1 2 2 2 2 1 1 1 1 1 1 1 1 1 1 1 1 1 1 1 1 1 1 1 1 1 1 1 1 1 1 1 1 1 1 0 0 0
1 1 1 1 1 2 2 2 2 1 1 1 1 1 1 1 1 1 1 1 1 1 1 1 1 1 1 1 1 1 1 1 1 1 1 1 1 1 1 1 0 0 0
2 2 2 2 2 2 2 2 2 1 1 1 1 1 1 1 1 1 1 1 1 1 1 1 1 1 1 1 1 1 1 1 1 1 1 1 1 1 1 0 0 0 0
2 2 2 2 2 2 2 2 2 2 2 1 1 1 1 1 1 1 1 2 1 1 1 1 1 1 1 1 1 1 1 1 1 1 1 1 1 1 0 0 0 0 0
1 2 2 2 3 3 2 2 2 2 2 2 2 1 1 1 1 1 1 2 2 1 1 1 1 1 1 0 0 1 1 1 1 1 1 1 1 1 0 0 0 0 0
1 2 2 2 3 3 3 2 2 2 2 2 2 2 1 1 1 1 1 2 2 1 1 1 1 1 1 0 0 0 1 1 1 1 1 1 1 1 0 0 0 0 0
2 2 2 2 2 2 2 2 2 2 2 2 2 2 2 1 1 1 1 1 1 1 1 1 1 1 1 0 0 0 0 0 1 1 1 1 1 0 0 0 0 0 0
2 2 2 2 2 2 2 2 2 2 2 2 2 2 2 2 1 1 1 1 1 1 1 1 1 1 1 0 0 0 0 0 0 0 1 1 0 0 0 0 0 0 0
2 2 2 2 2 2 2 2 2 2 2 2 2 2 2 2 1 1 1 1 1 1 1 1 1 1 1 0 0 0 0 0 0 0 0 0 0 0 0 0 0 0 0
2 2 2 2 2 3 3 3 2 2 2 2 2 2 2 1 1 1 1 1 1 1 1 1 1 1 1 0 0 0 0 0 0 0 0 0 0 0 0 0 0 0 0
2 2 2 2 3 3 3 3 3 2 2 2 2 1 1 1 1 1 1 1 1 1 1 1 1 1 1 0 0 0 0 0 0 0 0 0 0 0 0 0 0 0 0
2 2 2 2 3 3 3 3 2 2 2 1 1 1 1 1 1 1 1 1 1 1 1 1 1 1 1 1 0 0 0 0 0 0 0 0 0 0 0 0 0 0 0
2 2 2 2 2 2 2 2 2 2 1 1 1 1 1 1 1 1 1 1 1 1 1 1 1 1 1 1 0 0 0 0 0 0 0 0 0 0 0 0 0 0 0
2 1 1 2 2 2 2 2 1 1 1 1 1 1 1 1 1 1 1 1 1 1 1 1 1 1 1 0 0 0 0 0 0 0 0 0 0 0 0 0 0 0 0
1 1 1 1 1 1 1 1 1 1 1 1 1 1 1 1 1 1 1 1 1 0 0 1 1 1 0 0 0 0 0 0 0 0 0 0 0 0 0 0 0 0 0
Wind_Speed
12 11 10 11 10 9 7 6 5 4 3 2 1 1 1 1 1 1 2 1 1 1 1 2 2 2 1 1 2 1 2 2 1 1 2 2 2 2 2 2 2 3 3
12 11 10 10 11 10 8 6 5 4 3 3 2 2 2 1 1 1 2 2 1 1 1 1 1 1 1 1 1 1 1 2 1 1 1 1 1 1 2 2 3 3 2
13 12 11 11 11 10 9 7 6 4 3 3 2 1 1 1 1 1 1 1 1 0 1 1 1 1 1 2 2 2 2 1 1 1 1 0 1 2 1 2 1 2 1
13 13 12 11 10 10 9 7 6 5 4 3 2 2 2 1 1 1 1 1 1 1 1 0 1 1 1 0 2 1 2 2 2 2 1 1 1 1 1 1 1 1 2
11 12 12 11 10 10 9 8 7 5 4 3 3 2 2 1 0 1 1 1 1 1 1 0 0 1 1 1 1 1 1 1 2 2 1 2 1 2 1 2 1 2 2
9 9 11 10 9 9 8 8 7 6 5 4 4 3 2 1 1 1 1 1 1 1 1 1 0 1 1 1 1 1 2 2 2 2 2 1 1 2 1 2 2 2 2
9 9 9 10 9 8 8 7 8 7 6 5 4 3 3 2 2 2 1 1 1 1 1 1 1 0 1 1 1 2 2 2 2 2 2 2 2 1 1 2 2 2 2
10 10 9 9 9 8 8 7 8 7 7 5 4 3 2 2 2 2 1 1 1 1 1 1 1 1 1 2 1 2 2 1 2 3 2 2 2 2 2 2 2 2 2
8 9 9 9 8 8 8 8 7 6 6 6 5 3 3 2 2 1 2 1 1 1 0 0 0 1 1 2 2 1 2 2 2 2 2 2 2 2 2 2 2 2 3
8 8 8 8 7 7 7 7 7 6 5 5 5 4 4 3 2 2 2 1 1 1 1 1 1 1 1 2 2 2 2 2 2 2 2 2 2 3 3 2 2 2 2
8 8 8 7 7 7 7 7 7 6 5 5 4 3 3 3 3 2 2 2 1 1 1 1 2 2 2 1 2 2 2 2 2 3 2 2 2 2 3 3 2 2 2
7 7 7 7 6 6 6 6 6 6 6 5 4 3 3 3 4 3 3 2 2 2 1 1 2 2 2 2 2 2 2 2 3 3 3 3 3 3 3 3 3 3 2
6 6 6 5 5 5 5 5 5 5 6 6 5 4 4 4 4 3 2 2 2 2 2 2 2 2 2 2 2 2 3 3 3 3 3 3 2 3 3 3 3 3 3
5 5 4 4 4 4 4 4 5 5 5 5 4 3 3 2 2 2 2 3 3 3 2 2 2 2 2 2 2 3 3 3 3 3 3 3 2 2 3 4 3 3 4
5 4 4 4 4 4 4 4 4 4 4 4 4 3 3 2 2 2 2 2 3 3 2 2 2 3 2 2 2 3 4 3 4 3 3 3 3 3 3 3 2 3 3
4 4 4 4 3 3 3 3 3 3 3 3 3 3 3 2 2 2 2 2 2 2 2 2 2 2 2 2 2 3 4 3 3 3 3 4 4 4 4 5 5 4 4
3 3 3 4 4 3 3 3 2 2 2 2 2 3 3 3 3 3 2 2 3 3 3 2 2 2 1 2 2 3 4 4 3 3 3 4 3 2 3 4 6 6 7
2 2 2 3 3 3 3 2 2 2 2 2 2 2 2 3 3 2 2 2 2 3 2 2 2 2 2 2 3 5 4 4 4 4 3 3 3 3 3 4 4 5 5
2 2 1 1 2 3 3 3 2 2 3 2 2 2 2 2 2 2 2 2 2 3 3 3 3 3 3 3 4 4 4 4 4 4 3 2 2 3 4 4 5 5 5
2 2 1 2 2 3 2 2 2 2 2 2 2 2 2 2 2 2 3 3 3 3 4 3 4 4 3 4 4 4 4 4 4 3 3 2 2 3 4 4 5 5 5
2 2 2 2 2 2 2 2 1 1 1 1 1 2 2 3 3 3 3 3 4 4 4 5 4 4 4 4 5 4 3 4 4 3 3 2 3 5 5 6 5 6 5
3 2 2 2 2 2 2 1 0 0 0 0 1 2 3 4 3 3 4 4 5 5 5 5 4 3 4 4 5 6 6 5 4 4 3 2 3 5 7 6 6 7 6
2 2 2 2 1 2 1 0 1 1 1 1 2 2 3 3 3 4 4 4 4 5 4 4 4 3 2 3 5 6 7 7 4 4 4 4 5 6 6 7 7 5 3
1 1 1 1 1 1 1 1 1 1 0 1 2 2 3 4 3 3 4 4 4 4 3 3 3 2 1 0 1 1 2 4 4 4 4 6 8 6 5 5 4 4 3
0 0 0 0 0 1 1 1 1 1 1 2 3 3 4 3 3 3 3 3 2 2 2 2 2 2 2 1 1 1 2 2 2 3 3 3 3 2 2 2 2 2 2
1 1 1 1 1 1 0 0 0 0 2 3 3 3 4 3 3 3 2 2 2 3 3 2 2 1 1 2 2 2 2 3 2 2 3 3 3 3 2 2 2 1 1
Wind_Direction
157 156 159 152 147 143 143 149 149 145 152 152 184 186 187 203 204 184 137 146 231 240 252 289 252 252 239 226 230 239 249 253 240 279 291 278 239 222 208 191 193 200 200
159 160 161 159 156 152 152 154 155 158 171 172 188 193 192 208 199 145 131 163 223 240 249 256 260 258 236 225 241 221 264 275 239 252 280 297 317 298 251 195 194 188 192
168 163 166 167 164 160 162 164 162 166 177 182 187 194 173 202 157 147 146 179 194 209 313 334 303 290 237 198 212 208 233 252 263 236 233 230 244 285 251 241 190 163 190
168 165 168 172 171 165 163 157 158 162 170 180 186 191 186 189 189 175 148 158 156 202 239 269 281 284 289 229 232 195 221 224 248 260 248 241 244 251 271 281 243 221 219
167 165 169 171 171 166 163 160 159 163 167 182 193 199 208 209 198 162 158 173 172 212 239 211 203 234 269 278 290 309 234 235 250 265 267 259 261 257 246 260 266 263 240
152 159 162 158 162 161 159 158 160 168 172 181 186 197 213 233 262 231 200 203 193 186 202 196 207 242 267 273 291 288 255 246 263 269 271 269 260 263 270 271 257 252 249
154 158 163 159 161 162 163 163 163 174 179 183 188 193 210 219 244 261 228 228 244 184 178 179 137 266 280 279 281 258 257 256 257 256 264 269 269 281 287 279 277 287 282
160 161 164 160 162 166 167 167 170 178 181 185 184 189 205 223 230 238 262 261 286 320 90 150 165 217 279 293 292 275 259 264 266 266 262 271 268 269 259 267 291 295 283
150 155 160 160 162 167 169 168 164 169 176 180 177 183 193 217 257 268 240 253 267 283 57 177 197 232 259 276 281 272 274 275 271 272 280 280 275 274 264 254 252 258 280
149 151 153 156 162 167 168 167 163 163 167 181 189 187 187 200 224 247 258 274 286 302 292 264 261 256 253 271 284 279 274 282 273 259 262 274 283 296 286 271 261 256 255
151 148 151 154 161 165 167 168 164 162 172 180 171 188 189 196 209 221 237 251 261 260 263 271 270 265 269 275 266 265 265 267 271 278 276 272 268 278 293 296 283 276 270
133 140 145 149 155 159 162 159 165 176 176 176 174 194 197 195 206 217 215 221 244 254 258 258 270 270 272 272 274 278 283 274 271 269 266 272 282 287 289 295 289 285 278
123 129 135 143 152 151 155 164 174 179 180 180 184 193 198 202 206 218 224 216 227 242 255 261 268 277 282 277 275 275 274 271 268 269 265 262 273 285 286 284 288 291 291
113 122 130 135 139 143 154 161 174 176 179 180 183 191 196 201 210 206 221 226 227 226 231 243 256 265 272 284 290 285 272 273 273 269 269 261 262 279 287 279 284 289 288
126 125 130 137 140 145 153 168 172 174 175 177 186 190 187 186 203 205 209 225 241 239 228 233 246 255 253 283 303 293 277 278 276 275 271 257 245 250 259 277 287 287 281
137 134 129 134 144 151 160 164 165 161 161 175 189 181 183 194 210 209 212 218 235 247 243 244 251 262 278 300 306 301 293 289 282 280 281 266 242 245 254 261 269 272 272
134 135 143 150 150 145 140 149 140 138 144 164 174 186 192 199 215 224 214 219 232 237 230 233 236 241 272 300 305 300 282 281 280 276 271 278 285 271 273 266 264 262 263
113 120 143 151 149 148 143 128 140 150 156 167 174 192 204 210 212 216 235 240 242 247 237 230 232 233 240 245 268 291 266 269 271 268 259 259 279 292 299 281 272 264 263
64 90 112 140 144 143 143 149 155 154 173 184 191 205 216 218 226 234 239 245 242 251 248 234 235 235 231 228 243 270 270 264 264 259 255 251 263 307 310 285 279 275 275
60 75 68 85 116 129 138 154 175 177 195 198 210 213 218 214 235 247 252 253 249 247 250 241 240 237 229 216 227 245 264 268 271 260 239 230 242 268 271 268 273 274 282
53 74 82 75 89 115 129 146 157 212 223 205 238 220 229 228 226 232 246 254 252 251 252 251 241 232 229 205 209 219 250 275 281 273 263 242 238 255 259 260 265 266 277
42 55 73 79 87 110 112 109 122 14 15 286 268 255 242 243 228 224 236 244 247 246 244 247 248 232 216 210 209 214 231 265 279 285 282 278 272 267 263 258 262 271 278
35 39 65 84 86 113 128 141 76 62 333 284 276 278 275 259 231 229 237 243 246 248 246 239 242 242 206 194 210 220 239 252 260 281 296 291 277 267 257 247 252 260 263
23 8 45 67 83 106 118 140 136 125 259 286 291 277 270 265 249 245 241 244 253 256 265 268 269 267 247 169 214 245 254 254 258 276 287 272 261 254 259 258 246 242 253
112 36 56 65 152 135 131 139 124 166 252 268 271 270 264 268 254 252 260 256 253 257 264 277 281 280 276 249 222 246 264 274 280 283 270 268 262 252 248 248 242 239 246
171 173 214 226 219 168 154 89 85 264 271 271 271 272 270 261 248 248 261 283 248 237 234 234 246 268 232 227 223 235 263 274 276 266 269 276 279 286 289 284 272 261 269